Location: Greenwich
(51.4790°N, 0.0090°E)
Time: 13:29:57
(UTC+01:00)

Altair - Pass Details

Date: 26 June 2025
Orbit: 1502 x 1682 km, 47.2° (Epoch: 19 July)

Event Time Altitude Azimuth Distance (km) Brightness Sun altitude
Rises 01:42:11 0° 270° (W) 4,651 9.9 -14.7°
Reaches altitude 10° 01:45:12 10° 268° (W) 3,681 9.4 -14.6°
Maximum altitude 01:54:22 68° 188° (S) 1,656 7.4 -14.3°
Drops below altitude 10° 02:03:52 10° 109° (ESE) 3,804 9.5 -14.0°
Sets 02:07:02 0° 107° (ESE) 4,813 10.1 -13.8°
